Weather observations for the past three days for
New Stuyahok
| Date | Time (akdt) | Wind (mph) | Vis. (mi.) | Weather | Sky Cond. | Temperature (ºF) | Relative Humidity | Wind Chill (°F) | Heat Index (°F) | Pressure | Precipitation (in) | ||||||
|---|---|---|---|---|---|---|---|---|---|---|---|---|---|---|---|---|---|
| Air | Dwpt | 6 hour | altimeter (in) | sea level (mb) | 1 hr | 3 hr | 6 hr | ||||||||||
| Max. | Min. | ||||||||||||||||
| 04 | 13:56 | S 13 G 18 | 9.00 | Light Rain | BKN007 OVC012 | 59 | 59 | 100% | 29.93 | 1013.9 | |||||||
| 04 | 12:56 | S 10 | 4.00 | Light Rain Fog/Mist | BKN007 OVC010 | 57.9 | 57.9 | 100% | 29.94 | 1014.3 | 0.03 | 0.03 | |||||
| 04 | 11:56 | S 5 | 4.00 | Light Rain Fog/Mist | OVC010 | 57.9 | 57 | 97% | 29.94 | 1014.2 | |||||||
| 04 | 10:56 | S 8 | 10.00 | Overcast | OVC025 | 57 | 55.9 | 96% | 29.94 | 1014.3 | |||||||
| 04 | 09:56 | S 9 | 10.00 | Light Rain | OVC023 | 57 | 55.9 | 57 | 55.9 | 96% | 29.95 | 1014.3 | 0.01 | 0.04 | |||
| 04 | 08:56 | S 9 | 10.00 | Overcast | FEW013 OVC023 | 57 | 55.9 | 96% | 29.94 | 1014.1 | |||||||
| 04 | 07:56 | S 7 | 10.00 | Overcast | FEW013 OVC027 | 57 | 55.9 | 96% | 29.94 | 1014.4 | 0.01 | ||||||
| 04 | 06:56 | S 9 | 10.00 | Light Rain | BKN028 BKN042 OVC060 | 55.9 | 55.9 | 100% | 29.95 | 1014.6 | 0.02 | ||||||
| 04 | 05:56 | S 9 | 10.00 | Light Rain | BKN026 OVC060 | 55.9 | 55.9 | 100% | 29.96 | 1014.8 | 0.02 | ||||||
| 04 | 04:56 | S 9 | 9.00 | Light Rain | BKN018 OVC023 | 55.9 | 55 | 97% | 29.97 | 1015.2 | |||||||
| 04 | 03:56 | S 9 | 10.00 | Mostly Cloudy | SCT090 BKN110 | 55.9 | 55 | 60.1 | 55.9 | 97% | 29.97 | 1015.4 | 0.01 | ||||
| 04 | 02:56 | S 12 G 18 | 10.00 | Overcast | OVC080 | 55.9 | 55 | 97% | 29.99 | 1015.8 | |||||||
| 04 | 01:56 | S 10 G 16 | 10.00 | Light Rain | FEW055 BKN085 OVC110 | 55.9 | 55 | 97% | 29.99 | 1015.7 | 0.01 | ||||||
| 04 | 00:56 | S 10 G 17 | 10.00 | Light Rain | FEW042 BKN060 OVC080 | 57 | 54 | 90% | 29.98 | 1015.6 | |||||||
| 03 | 23:56 | S 10 | 10.00 | Overcast | SCT041 BKN050 OVC075 | 57.9 | 55 | 90% | 30 | 1016.1 | |||||||
| 03 | 22:56 | S 10 | 10.00 | Overcast | OVC045 | 57.9 | 55.9 | 93% | 30 | 1016.3 | |||||||
| 03 | 21:56 | S 8 G 16 | 10.00 | Overcast | OVC041 | 60.1 | 55.9 | 64 | 59 | 86% | 30 | 1016.1 | |||||
| 03 | 20:56 | S 8 | 10.00 | Light Rain | OVC041 | 60.1 | 57 | 90% | 29.99 | 1016.0 | |||||||
| 03 | 19:56 | S 12 G 17 | 10.00 | Overcast | OVC043 | 63 | 55.9 | 78% | 29.99 | 1015.9 | |||||||
| 03 | 18:56 | S 10 G 18 | 10.00 | Overcast | OVC039 | 64 | 57 | 78% | 30 | 1016.2 | |||||||
| 03 | 17:56 | S 9 | 10.00 | Overcast | OVC033 | 64 | 57 | 78% | 30.01 | 1016.4 | |||||||
| 03 | 16:56 | S 10 | 10.00 | Overcast | OVC035 | 64 | 55.9 | 75% | 30.02 | 1016.7 | |||||||
| 03 | 15:56 | S 9 | 10.00 | Overcast | OVC037 | 63 | 55.9 | 63 | 54 | 78% | 30.03 | 1017.2 | 0.01 | ||||
| 03 | 14:56 | S 10 G 18 | 10.00 | Overcast | OVC035 | 61 | 57 | 87% | 30.03 | 1017.4 | |||||||
| 03 | 13:56 | S 13 G 20 | 10.00 | Partly Cloudy | SCT011 SCT031 | 61 | 57.9 | 90% | 30.04 | 1017.6 | 0.01 | ||||||
| 03 | 12:56 | SE 9 | 10.00 | Mostly Cloudy | BKN003 | 59 | 59 | 100% | 30.03 | 1017.4 | |||||||
| 03 | 11:56 | S 8 | 10.00 | Overcast | OVC003 | 57 | 57 | 100% | 30.04 | 1017.5 | |||||||
| 03 | 10:56 | S 7 | 0.25 | Fog | OVC003 | 55 | 55 | 100% | 30.04 | 1017.6 | |||||||
| 03 | 09:56 | S 7 | 0.25 | Light Rain Fog | OVC003 | 54 | 54 | 54 | 52 | 100% | 30.04 | 1017.8 | 0.01 | 0.02 | |||
| 03 | 08:56 | S 6 | 0.25 | Light Rain Fog | OVC003 | 54 | 54 | 100% | 30.04 | 1017.6 | 0.01 | ||||||
| 03 | 07:56 | S 5 | 0.75 | Light Rain Fog/Mist | OVC003 | 53.1 | 53.1 | 100% | 30.04 | 1017.7 | |||||||
| 03 | 05:56 | S 8 | 0.50 | Fog | OVC003 | 53.1 | 53.1 | 100% | 30.06 | 1018.2 | |||||||
| 03 | 04:56 | S 6 | 0.25 | Fog | OVC003 | 53.1 | 53.1 | 100% | 30.05 | 1018.1 | |||||||
| 03 | 03:56 | S 5 | 0.25 | Fog | OVC003 | 52 | 52 | 52 | 52 | 100% | 30.06 | 1018.4 | |||||
| 03 | 02:56 | S 5 | 0.25 | Fog | OVC003 | 52 | 52 | 100% | 30.06 | 1018.4 | |||||||
| 03 | 01:56 | S 8 | 2.00 | Fog/Mist | OVC003 | 52 | 52 | 100% | 30.06 | 1018.5 | |||||||
| 03 | 00:56 | S 8 | 0.50 | Fog | OVC003 | 52 | 52 | 100% | 30.06 | 1018.4 | |||||||
| 02 | 23:56 | S 3 | 0.25 | Fog | OVC003 | 52 | 52 | 100% | 30.06 | 1018.5 | |||||||
| 02 | 22:56 | S 3 | 10.00 | Overcast | SCT003 BKN008 OVC013 | 52 | 51.1 | 97% | 30.06 | 1018.4 | |||||||
| 02 | 21:56 | S 7 | 10.00 | Overcast | FEW010 SCT031 OVC040 | 52 | 51.1 | 57.9 | 52 | 97% | 30.06 | 1018.3 | |||||
| 02 | 20:56 | S 7 | 10.00 | Overcast | BKN020 OVC034 | 54 | 48.9 | 83% | 30.05 | 1018.1 | |||||||
| 02 | 19:56 | S 10 | 10.00 | Overcast | OVC036 | 55.9 | 43 | 62% | 30.05 | 1017.9 | |||||||
| 02 | 18:56 | SW 8 | 10.00 | Overcast | OVC028 | 57 | 46 | 67% | 30.04 | 1017.9 | |||||||
| 02 | 17:56 | S 6 | 10.00 | Overcast | OVC036 | 57.9 | 45 | 62% | 30.04 | 1017.9 | |||||||
| 02 | 16:56 | S 7 | 10.00 | Overcast | OVC044 | 57 | 42.1 | 58% | 30.04 | 1017.7 | |||||||
| 02 | 15:56 | SW 6 | 10.00 | Overcast | OVC048 | 55.9 | 39.9 | 57 | 45 | 55% | 30.04 | 1017.6 | |||||
| 02 | 14:56 | SW 8 | 10.00 | Overcast | OVC060 | 55.9 | 41 | 57% | 30.03 | 1017.5 | |||||||
| 02 | 13:56 | S 8 | 10.00 | Overcast | OVC070 | 55 | 37 | 51% | 30.04 | 1017.6 | |||||||
| 02 | 12:56 | SE 3 | 10.00 | Overcast | OVC095 | 54 | 37.9 | 55% | 30.05 | 1018.1 | |||||||
| 02 | 11:56 | Calm | 10.00 | Mostly Cloudy | BKN110 | 53.1 | 37.9 | 57% | 30.02 | 1017.2 | |||||||
| 02 | 10:56 | N 5 | 10.00 | A Few Clouds | FEW120 | 50 | 37.9 | 63% | 49 | 30.02 | 1017.2 | ||||||
| 02 | 09:56 | N 7 | 10.00 | Fair | CLR | 45 | 37.9 | 46 | 39 | 77% | 42 | 30 | 1016.5 | ||||
| 02 | 08:56 | N 5 | 10.00 | Fair | CLR | 42.1 | 39 | 89% | 40 | 29.99 | 1016.2 | ||||||
| 02 | 07:56 | N 7 | 10.00 | Fair | CLR | 39.9 | 39 | 97% | 36 | 29.95 | 1014.8 | ||||||
| 02 | 06:56 | N 6 | 10.00 | Fair | CLR | 42.1 | 39 | 89% | 39 | 29.95 | 1014.8 | ||||||
| 02 | 05:56 | N 6 | 10.00 | Fair | CLR | 42.1 | 41 | 96% | 39 | 29.94 | 1014.2 | ||||||
| 02 | 04:56 | NW 3 | 10.00 | Fair | CLR | 44.1 | 42.1 | 93% | 29.92 | 1013.6 | |||||||
| 02 | 03:56 | N 3 | 10.00 | Mostly Cloudy | BKN110 | 46 | 43 | 50 | 46 | 89% | 29.9 | 1013.1 | |||||
| 02 | 02:56 | W 6 | 10.00 | Overcast | OVC110 | 46 | 43 | 89% | 44 | 29.89 | 1012.6 | ||||||
| 02 | 01:56 | W 6 | 10.00 | Overcast | OVC120 | 46 | 43 | 89% | 44 | 29.88 | 1012.3 | ||||||
| 02 | 00:56 | W 6 | 10.00 | Overcast | OVC110 | 46 | 43 | 89% | 44 | 29.88 | 1012.2 | ||||||
| 01 | 23:56 | W 5 | 10.00 | Partly Cloudy | SCT110 | 46.9 | 43 | 86% | 45 | 29.87 | 1012.0 | ||||||
| 01 | 22:56 | W 6 | 10.00 | Fair | CLR | 48.9 | 43 | 80% | 47 | 29.86 | 1011.6 | ||||||
| 01 | 21:56 | W 7 | 10.00 | Partly Cloudy | SCT110 | 50 | 42.1 | 57 | 50 | 74% | 48 | 29.85 | 1011.4 | ||||
| 01 | 20:56 | W 5 | 10.00 | Fair | CLR | 53.1 | 41 | 64% | 29.84 | 1010.8 | |||||||
| 01 | 19:56 | W 6 | 10.00 | A Few Clouds | FEW100 | 55 | 39.9 | 57% | 29.84 | 1011.0 | |||||||
| 01 | 18:56 | W 6 | 10.00 | Fair | CLR | 55.9 | 39 | 53% | 29.85 | 1011.1 | |||||||
| 01 | 17:56 | N 6 | 10.00 | A Few Clouds | FEW120 | 55.9 | 36 | 47% | 29.84 | 1011.1 | |||||||
| 01 | 16:56 | N 6 | 10.00 | Fair | CLR | 57 | 36 | 45% | 29.84 | 1010.8 | |||||||
| 01 | 15:56 | Vrbl 5 | 10.00 | Fair | CLR | 55 | 36 | 55.9 | 43 | 49% | 29.85 | 1011.2 | |||||
| 01 | 14:56 | Vrbl 7 | 10.00 | Fair | CLR | 54 | 37 | 53% | 29.84 | 1011.1 | |||||||
| Date | Time (akdt) | Wind (mph) | Vis. (mi.) | Weather | Sky Cond. | Air | Dwpt | Max. | Min. | Relative Humidity | Wind Chill (°F) | Heat Index (°F) | altimeter (in) | sea level (mb) | 1 hr | 3 hr | 6 hr |
| 6 hour | |||||||||||||||||
| Temperature (ºF) | Pressure | Precipitation (in) | |||||||||||||||